Time,TemperatureF,DewpointF,PressureIn,WindDirection,WindDirectionDegrees,WindSpeedMPH,WindSpeedGustMPH,Humidity,HourlyPrecipIn,Conditions,Clouds,dailyrainin,SoftwareType,DateUTC
2014-02-19 00:00:00,23.4,22.4,29.97,NW,315,4.0,9.0,96,0.00,,OVC048,0.00,VWS V14.01,2014-02-19 05:00:00,
2014-02-19 00:10:00,23.6,22.6,29.98,NW,315,4.0,7.0,96,0.00,,OVC048,0.00,VWS V14.01,2014-02-19 05:10:00,
2014-02-19 00:20:00,23.6,22.6,29.98,NW,315,4.0,7.0,96,0.00,,OVC048,0.00,VWS V14.01,2014-02-19 05:20:00,
2014-02-19 00:30:00,23.6,22.6,29.98,NW,315,4.0,7.0,96,0.00,,OVC048,0.00,VWS V14.01,2014-02-19 05:30:00,
2014-02-19 00:40:00,23.5,22.5,29.98,NW,315,4.0,9.0,96,0.00,,OVC048,0.00,VWS V14.01,2014-02-19 05:40:00,
2014-02-19 00:50:00,23.3,22.3,29.98,NW,315,4.0,6.0,96,0.00,,OVC048,0.00,VWS V14.01,2014-02-19 05:50:00,
2014-02-19 01:00:00,23.2,22.2,29.98,NW,315,4.0,8.0,96,0.00,,OVC048,0.00,VWS V14.01,2014-02-19 06:00:00,
2014-02-19 01:10:00,23.1,22.1,29.99,NW,315,4.0,7.0,96,0.00,,OVC048,0.00,VWS V14.01,2014-02-19 06:10:00,
2014-02-19 01:20:00,22.8,21.8,29.99,NW,315,3.0,5.0,96,0.00,,OVC048,0.00,VWS V14.01,2014-02-19 06:20:00,
2014-02-19 01:30:00,22.7,21.7,29.99,NW,315,2.0,5.0,96,0.00,,OVC048,0.00,VWS V14.01,2014-02-19 06:30:00,
2014-02-19 01:40:00,22.4,21.4,30.00,NW,315,3.0,4.0,96,0.00,,OVC048,0.00,VWS V14.01,2014-02-19 06:40:00,
2014-02-19 01:50:00,22.0,20.8,30.00,NW,315,2.0,4.0,95,0.00,,OVC048,0.00,VWS V14.01,2014-02-19 06:50:00,
2014-02-19 02:00:00,21.6,20.4,30.01,WNW,292,2.0,5.0,95,0.00,,OVC048,0.00,VWS V14.01,2014-02-19 07:00:00,
2014-02-19 02:10:00,21.5,20.3,30.02,WNW,292,2.0,4.0,95,0.00,,OVC048,0.00,VWS V14.01,2014-02-19 07:10:00,
2014-02-19 02:20:00,21.5,20.3,30.02,WNW,292,2.0,4.0,95,0.00,,OVC048,0.00,VWS V14.01,2014-02-19 07:20:00,
2014-02-19 02:30:00,21.6,20.6,30.01,West,270,1.0,2.0,96,0.00,,OVC048,0.00,VWS V14.01,2014-02-19 07:30:00,
2014-02-19 02:40:00,21.2,20.0,30.01,WNW,292,1.0,3.0,95,0.00,,OVC048,0.00,VWS V14.01,2014-02-19 07:40:00,
2014-02-19 02:50:00,21.3,20.1,30.01,NW,315,2.0,4.0,95,0.00,,OVC048,0.00,VWS V14.01,2014-02-19 07:50:00,
2014-02-19 03:00:00,21.4,20.2,30.01,NW,315,2.0,4.0,95,0.00,,OVC048,0.00,VWS V14.01,2014-02-19 08:00:00,
2014-02-19 03:10:00,21.3,20.1,30.02,West,270,0.0,3.0,95,0.00,,OVC048,0.00,VWS V14.01,2014-02-19 08:10:00,
2014-02-19 03:20:00,20.7,19.5,30.03,West,270,1.0,3.0,95,0.00,,OVC048,0.00,VWS V14.01,2014-02-19 08:20:00,
2014-02-19 03:30:00,20.3,19.1,30.04,WSW,248,1.0,3.0,95,0.00,,OVC048,0.00,VWS V14.01,2014-02-19 08:30:00,
2014-02-19 03:40:00,20.1,18.9,30.04,West,270,1.0,3.0,95,0.00,,OVC048,0.00,VWS V14.01,2014-02-19 08:40:00,
2014-02-19 03:50:00,20.1,18.9,30.04,West,270,1.0,2.0,95,0.00,,OVC048,0.00,VWS V14.01,2014-02-19 08:50:00,
2014-02-19 04:00:00,20.0,18.8,30.05,WSW,248,0.0,2.0,95,0.00,,OVC048,0.00,VWS V14.01,2014-02-19 09:00:00,
2014-02-19 04:10:00,19.8,18.6,30.04,WSW,248,0.0,1.0,95,0.00,,OVC048,0.00,VWS V14.01,2014-02-19 09:10:00,
2014-02-19 04:20:00,19.9,18.7,30.05,WSW,248,1.0,2.0,95,0.00,,OVC048,0.00,VWS V14.01,2014-02-19 09:20:00,
2014-02-19 04:30:00,19.7,18.5,30.05,West,270,1.0,3.0,95,0.00,,OVC048,0.00,VWS V14.01,2014-02-19 09:30:00,
2014-02-19 04:40:00,19.8,18.6,30.06,West,270,1.0,2.0,95,0.00,,OVC048,0.00,VWS V14.01,2014-02-19 09:40:00,
2014-02-19 04:50:00,19.8,18.6,30.08,West,270,1.0,3.0,95,0.00,,OVC048,0.00,VWS V14.01,2014-02-19 09:50:00,
2014-02-19 05:00:00,19.7,18.5,30.08,West,270,1.0,3.0,95,0.00,,OVC048,0.00,VWS V14.01,2014-02-19 10:00:00,
2014-02-19 05:10:00,19.7,18.5,30.08,West,270,1.0,2.0,95,0.00,,OVC048,0.00,VWS V14.01,2014-02-19 10:10:00,
2014-02-19 05:20:00,20.1,18.9,30.07,West,270,1.0,3.0,95,0.00,,OVC048,0.00,VWS V14.01,2014-02-19 10:20:00,
2014-02-19 05:30:00,20.2,19.0,30.08,West,270,1.0,2.0,95,0.00,,OVC048,0.00,VWS V14.01,2014-02-19 10:30:00,
2014-02-19 05:40:00,20.6,19.6,30.07,WSW,248,1.0,3.0,96,0.00,,OVC048,0.00,VWS V14.01,2014-02-19 10:40:00,
2014-02-19 05:50:00,20.5,19.3,30.07,West,270,0.0,1.0,95,0.00,,OVC048,0.00,VWS V14.01,2014-02-19 10:50:00,
2014-02-19 06:00:00,20.1,18.9,30.07,West,270,0.0,2.0,95,0.00,,OVC048,0.00,VWS V14.01,2014-02-19 11:00:00,
2014-02-19 06:10:00,20.0,18.8,30.07,West,270,0.0,0.0,95,0.00,,OVC048,0.00,VWS V14.01,2014-02-19 11:10:00,
2014-02-19 06:20:00,19.8,18.6,30.06,West,270,0.0,0.0,95,0.00,,OVC048,0.00,VWS V14.01,2014-02-19 11:20:00,
2014-02-19 06:30:00,19.7,18.5,30.05,West,270,0.0,0.0,95,0.00,,OVC048,0.00,VWS V14.01,2014-02-19 11:30:00,
2014-02-19 06:40:00,19.5,18.3,30.05,East,90,1.0,3.0,95,0.00,,OVC048,0.00,VWS V14.01,2014-02-19 11:40:00,
2014-02-19 06:50:00,19.8,18.6,30.06,West,270,0.0,1.0,95,0.00,,OVC048,0.00,VWS V14.01,2014-02-19 11:50:00,
2014-02-19 07:03:00,19.8,18.6,30.06,West,270,0.0,1.0,95,0.00,,OVC048,0.00,VWS V14.01,2014-02-19 12:03:00,
2014-02-19 07:08:00,20.2,19.0,30.06,West,271,0.0,0.0,95,0.00,,OVC048,0.00,VWS V14.01,2014-02-19 12:08:00,
2014-02-19 07:13:00,20.5,19.5,30.06,West,271,0.0,0.0,96,0.00,,OVC048,0.00,VWS V14.01,2014-02-19 12:13:00,
2014-02-19 07:18:00,20.6,19.6,30.06,West,271,0.0,0.0,96,0.00,,OVC048,0.00,VWS V14.01,2014-02-19 12:18:00,
2014-02-19 07:23:00,20.8,19.8,30.06,West,271,0.0,0.0,96,0.00,,BKN150,0.00,VWS V14.01,2014-02-19 12:23:00,
2014-02-19 07:28:00,20.8,19.6,30.06,West,271,0.0,0.0,95,0.00,,BKN150,0.00,VWS V14.01,2014-02-19 12:28:00,
2014-02-19 07:33:00,20.9,19.7,30.06,West,271,0.0,0.0,95,0.00,,BKN150,0.00,VWS V14.01,2014-02-19 12:33:00,
2014-02-19 07:38:00,21.2,20.0,30.07,West,271,0.0,0.0,95,0.00,,BKN150,0.00,VWS V14.01,2014-02-19 12:38:00,
2014-02-19 07:43:00,21.8,20.8,30.07,West,271,0.0,0.0,96,0.00,,BKN150,0.00,VWS V14.01,2014-02-19 12:43:00,
2014-02-19 07:48:00,22.3,21.3,30.06,West,271,0.0,0.0,96,0.00,,BKN150,0.00,VWS V14.01,2014-02-19 12:48:00,
2014-02-19 07:53:00,22.8,21.8,30.06,West,271,0.0,0.0,96,0.00,,BKN150,0.00,VWS V14.01,2014-02-19 12:53:00,
2014-02-19 07:58:00,23.7,22.7,30.06,West,271,0.0,0.0,96,0.00,,BKN150,0.00,VWS V14.01,2014-02-19 12:58:00,
2014-02-19 08:03:00,24.6,23.6,30.06,West,271,0.0,0.0,96,0.00,,BKN150,0.00,VWS V14.01,2014-02-19 13:03:00,
2014-02-19 08:08:00,25.3,24.3,30.05,West,271,0.0,0.0,96,0.00,,BKN150,0.00,VWS V14.01,2014-02-19 13:08:00,
2014-02-19 08:14:00,25.8,24.8,30.05,West,271,0.0,0.0,96,0.00,,BKN150,0.00,VWS V14.01,2014-02-19 13:14:00,
2014-02-19 08:18:00,26.6,25.6,30.05,West,271,0.0,0.0,96,0.00,,BKN150,0.00,VWS V14.01,2014-02-19 13:18:00,
2014-02-19 08:24:00,27.1,26.4,30.05,West,271,0.0,0.0,97,0.00,,BKN150,0.00,VWS V14.01,2014-02-19 13:24:00,
2014-02-19 08:28:00,26.9,25.9,30.05,West,271,0.0,0.0,96,0.00,,BKN150,0.00,VWS V14.01,2014-02-19 13:28:00,
2014-02-19 08:33:00,26.1,24.9,30.06,NW,307,0.0,0.0,95,0.00,,BKN150,0.00,VWS V14.01,2014-02-19 13:33:00,
2014-02-19 08:38:00,25.5,24.3,30.06,NW,307,0.0,0.0,95,0.00,,BKN150,0.00,VWS V14.01,2014-02-19 13:38:00,
2014-02-19 08:43:00,25.4,24.2,30.06,NW,307,0.0,0.0,95,0.00,,BKN150,0.00,VWS V14.01,2014-02-19 13:43:00,
2014-02-19 08:48:00,25.6,24.4,30.05,WSW,257,0.0,0.0,95,0.00,,BKN150,0.00,VWS V14.01,2014-02-19 13:48:00,
2014-02-19 08:53:00,26.1,25.1,30.05,WSW,257,0.0,0.0,96,0.00,,BKN150,0.00,VWS V14.01,2014-02-19 13:53:00,
2014-02-19 08:58:00,26.8,25.8,30.05,WSW,257,0.0,0.0,96,0.00,,BKN150,0.00,VWS V14.01,2014-02-19 13:58:00,
2014-02-19 09:03:00,27.7,26.7,30.05,WSW,257,0.0,0.0,96,0.00,,BKN200,0.00,VWS V14.01,2014-02-19 14:03:00,
2014-02-19 09:08:00,28.2,27.2,30.05,WSW,257,0.0,0.0,96,0.00,,BKN200,0.00,VWS V14.01,2014-02-19 14:08:00,
2014-02-19 09:13:00,28.5,27.5,30.05,WSW,257,0.0,0.0,96,0.00,,BKN200,0.00,VWS V14.01,2014-02-19 14:13:00,
2014-02-19 09:18:00,28.5,27.5,30.05,WSW,257,0.0,0.0,96,0.00,,BKN200,0.00,VWS V14.01,2014-02-19 14:18:00,
2014-02-19 09:23:00,28.9,27.9,30.05,WSW,257,0.0,0.0,96,0.00,,BKN200,0.00,VWS V14.01,2014-02-19 14:23:00,
2014-02-19 09:28:00,29.2,28.2,30.05,ENE,60,0.0,0.0,96,0.00,,BKN200,0.00,VWS V14.01,2014-02-19 14:28:00,
2014-02-19 09:33:00,29.4,28.7,30.05,ENE,70,0.0,0.0,97,0.00,,BKN200,0.00,VWS V14.01,2014-02-19 14:33:00,
2014-02-19 09:38:00,29.6,28.9,30.05,ENE,72,0.0,0.0,97,0.00,,BKN200,0.00,VWS V14.01,2014-02-19 14:38:00,
2014-02-19 09:43:00,29.6,28.9,30.05,ENE,67,0.0,0.0,97,0.00,,BKN200,0.00,VWS V14.01,2014-02-19 14:43:00,
2014-02-19 09:48:00,29.2,28.2,30.04,ENE,68,0.0,0.0,96,0.00,,BKN200,0.00,VWS V14.01,2014-02-19 14:48:00,
2014-02-19 09:53:00,29.0,28.0,30.03,ENE,78,3.0,4.0,96,0.00,,BKN200,0.00,VWS V14.01,2014-02-19 14:53:00,
2014-02-19 09:58:00,28.7,27.7,30.02,ENE,74,4.0,5.0,96,0.00,,BKN200,0.00,VWS V14.01,2014-02-19 14:58:00,
2014-02-19 10:03:00,28.5,27.5,30.01,ENE,67,3.0,5.0,96,0.00,,BKN012,0.00,VWS V14.01,2014-02-19 15:03:00,
2014-02-19 10:08:00,28.7,27.7,30.01,NE,50,5.0,6.0,96,0.00,,BKN012,0.00,VWS V14.01,2014-02-19 15:08:00,
2014-02-19 10:13:00,28.8,27.8,30.01,ENE,64,4.0,7.0,96,0.00,,BKN012,0.00,VWS V14.01,2014-02-19 15:13:00,
2014-02-19 10:18:00,29.0,28.3,30.01,ENE,75,4.0,6.0,97,0.00,,BKN012,0.00,VWS V14.01,2014-02-19 15:18:00,
2014-02-19 10:24:00,29.2,28.5,30.02,ESE,112,3.0,7.0,97,0.00,,BKN012,0.00,VWS V14.01,2014-02-19 15:24:00,
2014-02-19 10:29:00,29.8,29.0,30.02,SE,126,3.0,4.0,97,0.00,,BKN012,0.00,VWS V14.01,2014-02-19 15:29:00,
2014-02-19 10:34:00,30.4,29.6,30.02,East,98,3.0,3.0,97,0.00,,BKN012,0.00,VWS V14.01,2014-02-19 15:34:00,
2014-02-19 10:38:00,30.7,30.0,30.02,East,79,7.0,8.0,97,0.00,,BKN012,0.00,VWS V14.01,2014-02-19 15:38:00,
2014-02-19 10:43:00,31.1,30.4,30.01,SSE,151,4.0,8.0,97,0.00,,BKN012,0.00,VWS V14.01,2014-02-19 15:43:00,
2014-02-19 10:48:00,31.4,30.6,30.02,SE,146,3.0,9.0,97,0.00,,BKN012,0.00,VWS V14.01,2014-02-19 15:48:00,
2014-02-19 10:53:00,31.5,30.8,30.02,East,97,9.0,10.0,97,0.00,,BKN012,0.00,VWS V14.01,2014-02-19 15:53:00,
2014-02-19 10:58:00,31.6,30.9,30.01,ENE,71,8.0,8.0,97,0.00,,BKN012,0.00,VWS V14.01,2014-02-19 15:58:00,
2014-02-19 11:04:00,31.6,30.9,30.00,ESE,115,4.0,6.0,97,0.00,,OVC014,0.00,VWS V14.01,2014-02-19 16:04:00,
2014-02-19 11:08:00,31.7,31.0,30.00,East,101,6.0,9.0,97,0.00,,OVC014,0.00,VWS V14.01,2014-02-19 16:08:00,
2014-02-19 11:13:00,31.8,31.0,30.00,ESE,107,5.0,9.0,97,0.00,,OVC014,0.00,VWS V14.01,2014-02-19 16:13:00,
2014-02-19 11:18:00,31.9,31.1,30.00,ESE,122,4.0,13.0,97,0.00,,OVC014,0.00,VWS V14.01,2014-02-19 16:18:00,
2014-02-19 11:23:00,32.1,31.4,30.01,South,169,3.0,6.0,97,0.00,,OVC014,0.00,VWS V14.01,2014-02-19 16:23:00,
2014-02-19 11:28:00,32.3,31.5,30.01,SW,231,7.0,11.0,97,0.00,,OVC014,0.00,VWS V14.01,2014-02-19 16:28:00,
2014-02-19 11:33:00,32.4,31.6,30.00,East,89,6.0,6.0,97,0.00,,OVC014,0.00,VWS V14.01,2014-02-19 16:33:00,
2014-02-19 11:38:00,32.5,31.7,30.00,SE,142,6.0,7.0,97,0.00,,OVC014,0.00,VWS V14.01,2014-02-19 16:38:00,
2014-02-19 11:43:00,32.6,31.8,30.00,East,101,6.0,6.0,97,0.00,,OVC014,0.00,VWS V14.01,2014-02-19 16:43:00,
2014-02-19 11:48:00,32.7,31.9,30.00,SSE,152,8.0,8.0,97,0.00,,OVC014,0.00,VWS V14.01,2014-02-19 16:48:00,
2014-02-19 11:53:00,33.0,32.2,29.98,ESE,106,5.0,5.0,97,0.00,,OVC014,0.00,VWS V14.01,2014-02-19 16:53:00,
2014-02-19 11:58:00,33.0,32.2,29.97,ESE,106,6.0,8.0,97,0.00,,OVC014,0.00,VWS V14.01,2014-02-19 16:58:00,
2014-02-19 12:03:00,33.2,32.4,29.97,ENE,60,5.0,8.0,97,0.00,,OVC022,0.00,VWS V14.01,2014-02-19 17:03:00,
2014-02-19 12:08:00,33.5,32.7,29.98,SE,141,6.0,7.0,97,0.00,,OVC022,0.00,VWS V14.01,2014-02-19 17:08:00,
2014-02-19 12:13:00,33.7,32.9,30.00,South,183,4.0,5.0,97,0.00,,OVC022,0.00,VWS V14.01,2014-02-19 17:13:00,
2014-02-19 12:18:00,33.9,33.1,29.98,SE,138,2.0,6.0,97,0.00,,OVC022,0.00,VWS V14.01,2014-02-19 17:18:00,
2014-02-19 12:23:00,34.1,33.3,29.97,SSW,208,6.0,8.0,97,0.00,,OVC022,0.00,VWS V14.01,2014-02-19 17:23:00,
2014-02-19 12:28:00,34.0,33.2,29.98,SSW,205,3.0,8.0,97,0.00,,OVC022,0.00,VWS V14.01,2014-02-19 17:28:00,
2014-02-19 12:33:00,34.1,33.3,29.98,South,174,5.0,5.0,97,0.00,,OVC022,0.00,VWS V14.01,2014-02-19 17:33:00,
2014-02-19 12:38:00,34.1,33.3,29.98,SW,232,2.0,7.0,97,0.00,,OVC022,0.00,VWS V14.01,2014-02-19 17:38:00,
2014-02-19 12:43:00,34.1,33.1,29.98,SSW,203,2.0,3.0,96,0.00,,OVC022,0.00,VWS V14.01,2014-02-19 17:43:00,
2014-02-19 12:48:00,33.9,32.9,29.98,SE,125,4.0,7.0,96,0.00,,OVC022,0.00,VWS V14.01,2014-02-19 17:48:00,
2014-02-19 12:53:00,33.8,32.8,29.98,SSW,193,7.0,9.0,96,0.00,,OVC022,0.00,VWS V14.01,2014-02-19 17:53:00,
2014-02-19 12:58:00,33.7,32.7,29.97,SSW,210,0.0,3.0,96,0.00,,OVC022,0.00,VWS V14.01,2014-02-19 17:58:00,
2014-02-19 13:03:00,33.8,33.0,29.96,South,183,2.0,5.0,97,0.00,,OVC024,0.00,VWS V14.01,2014-02-19 18:03:00,
2014-02-19 13:08:00,33.8,33.0,29.96,SSW,193,1.0,5.0,97,0.00,,OVC024,0.00,VWS V14.01,2014-02-19 18:08:00,
2014-02-19 13:13:00,33.7,32.9,29.95,ESE,110,6.0,8.0,97,0.00,,OVC024,0.00,VWS V14.01,2014-02-19 18:13:00,
2014-02-19 13:18:00,33.6,32.8,29.95,South,186,3.0,3.0,97,0.00,,OVC024,0.00,VWS V14.01,2014-02-19 18:18:00,
2014-02-19 13:23:00,33.6,32.8,29.95,South,186,3.0,3.0,97,0.00,,OVC024,0.00,VWS V14.01,2014-02-19 18:23:00,
2014-02-19 13:28:00,33.5,32.7,29.93,SSE,153,4.0,5.0,97,0.00,,OVC024,0.00,VWS V14.01,2014-02-19 18:28:00,
2014-02-19 13:33:00,33.6,32.8,29.93,South,172,2.0,3.0,97,0.00,,OVC024,0.00,VWS V14.01,2014-02-19 18:33:00,
2014-02-19 13:38:00,33.7,32.9,29.93,SSE,152,4.0,4.0,97,0.00,,OVC024,0.00,VWS V14.01,2014-02-19 18:38:00,
2014-02-19 13:43:00,33.6,32.8,29.93,SSE,151,1.0,4.0,97,0.00,,OVC024,0.00,VWS V14.01,2014-02-19 18:43:00,
2014-02-19 13:48:00,33.7,32.9,29.92,SSE,163,3.0,3.0,97,0.00,,OVC024,0.00,VWS V14.01,2014-02-19 18:48:00,
2014-02-19 13:53:00,33.7,32.9,29.92,SSW,194,3.0,3.0,97,0.00,,OVC024,0.00,VWS V14.01,2014-02-19 18:53:00,
2014-02-19 13:58:00,33.7,32.9,29.92,East,91,2.0,2.0,97,0.00,,OVC024,0.00,VWS V14.01,2014-02-19 18:58:00,
2014-02-19 14:03:00,33.7,32.9,29.91,SW,219,0.0,1.0,97,0.00,,OVC022,0.00,VWS V14.01,2014-02-19 19:03:00,
2014-02-19 14:08:00,33.7,32.9,29.90,ENE,72,3.0,3.0,97,0.00,,OVC022,0.00,VWS V14.01,2014-02-19 19:08:00,
2014-02-19 14:13:00,33.8,33.0,29.90,SSE,156,1.0,4.0,97,0.00,,OVC022,0.00,VWS V14.01,2014-02-19 19:13:00,
2014-02-19 14:18:00,34.0,33.2,29.90,ESE,103,0.0,0.0,97,0.00,,OVC022,0.00,VWS V14.01,2014-02-19 19:18:00,
2014-02-19 14:23:00,33.9,33.1,29.89,ESE,110,2.0,4.0,97,0.00,,OVC022,0.00,VWS V14.01,2014-02-19 19:23:00,
2014-02-19 14:28:00,33.9,33.1,29.90,SSW,212,4.0,4.0,97,0.00,,OVC022,0.00,VWS V14.01,2014-02-19 19:28:00,
2014-02-19 14:33:00,33.8,33.0,29.89,South,170,3.0,4.0,97,0.00,,OVC022,0.00,VWS V14.01,2014-02-19 19:33:00,
2014-02-19 14:38:00,33.8,33.0,29.89,SSE,162,0.0,0.0,97,0.01,,OVC022,0.01,VWS V14.01,2014-02-19 19:38:00,
2014-02-19 14:43:00,33.7,32.9,29.90,SW,215,3.0,4.0,97,0.01,,OVC022,0.01,VWS V14.01,2014-02-19 19:43:00,
2014-02-19 14:48:00,33.8,33.0,29.89,SE,132,2.0,2.0,97,0.01,,OVC022,0.01,VWS V14.01,2014-02-19 19:48:00,
2014-02-19 14:53:00,33.8,33.0,29.89,SW,221,2.0,3.0,97,0.01,,OVC022,0.01,VWS V14.01,2014-02-19 19:53:00,
2014-02-19 14:58:00,33.7,32.9,29.88,ENE,67,1.0,5.0,97,0.01,,OVC022,0.01,VWS V14.01,2014-02-19 19:58:00,
2014-02-19 15:03:00,33.7,32.9,29.87,East,96,2.0,2.0,97,0.01,,OVC060,0.01,VWS V14.01,2014-02-19 20:03:00,
2014-02-19 15:08:00,33.7,32.9,29.87,East,85,0.0,0.0,97,0.01,,OVC060,0.01,VWS V14.01,2014-02-19 20:08:00,
2014-02-19 15:13:00,33.6,32.8,29.87,ENE,75,1.0,2.0,97,0.01,,OVC060,0.01,VWS V14.01,2014-02-19 20:13:00,
2014-02-19 15:18:00,33.7,32.9,29.89,South,172,1.0,3.0,97,0.02,,OVC060,0.02,VWS V14.01,2014-02-19 20:18:00,
2014-02-19 15:23:00,33.7,32.9,29.87,SSW,197,1.0,2.0,97,0.02,,,0.02,VWS V14.01,2014-02-19 20:23:00,
2014-02-19 15:28:00,33.8,33.0,29.88,SE,141,2.0,3.0,97,0.02,,,0.02,VWS V14.01,2014-02-19 20:28:00,
2014-02-19 15:33:00,33.8,33.0,29.89,ESE,121,4.0,4.0,97,0.02,,,0.02,VWS V14.01,2014-02-19 20:33:00,
2014-02-19 15:38:00,33.8,33.0,29.89,SW,218,3.0,3.0,97,0.02,,,0.02,VWS V14.01,2014-02-19 20:38:00,
2014-02-19 15:43:00,33.9,33.1,29.88,SE,143,1.0,2.0,97,0.01,,,0.02,VWS V14.01,2014-02-19 20:43:00,
2014-02-19 15:48:00,33.8,33.0,29.87,South,179,0.0,0.0,97,0.01,,,0.02,VWS V14.01,2014-02-19 20:48:00,
2014-02-19 15:53:00,33.7,32.9,29.87,South,173,2.0,3.0,97,0.01,,,0.02,VWS V14.01,2014-02-19 20:53:00,
2014-02-19 15:58:00,33.5,32.7,29.87,SE,133,2.0,6.0,97,0.01,,,0.02,VWS V14.01,2014-02-19 20:58:00,
2014-02-19 16:03:00,33.2,32.4,29.86,ESE,105,2.0,3.0,97,0.01,,,0.02,VWS V14.01,2014-02-19 21:03:00,
2014-02-19 16:08:00,32.9,32.1,29.86,ENE,74,1.0,2.0,97,0.01,,,0.02,VWS V14.01,2014-02-19 21:08:00,
2014-02-19 16:13:00,32.7,31.9,29.85,SE,137,1.0,2.0,97,0.01,,,0.02,VWS V14.01,2014-02-19 21:13:00,
2014-02-19 16:18:00,32.5,31.7,29.85,ESE,109,1.0,2.0,97,0.01,,,0.02,VWS V14.01,2014-02-19 21:18:00,
2014-02-19 16:23:00,32.4,31.6,29.84,East,99,1.0,2.0,97,0.00,,,0.02,VWS V14.01,2014-02-19 21:23:00,
2014-02-19 16:28:00,32.3,31.5,29.84,ESE,104,2.0,2.0,97,0.00,,,0.02,VWS V14.01,2014-02-19 21:28:00,
2014-02-19 16:33:00,32.3,31.8,29.84,ESE,123,2.0,4.0,98,0.00,,,0.02,VWS V14.01,2014-02-19 21:33:00,
2014-02-19 16:38:00,32.2,31.7,29.84,ESE,115,2.0,3.0,98,0.00,,,0.02,VWS V14.01,2014-02-19 21:38:00,
2014-02-19 16:43:00,32.1,31.6,29.84,ESE,105,3.0,3.0,98,0.00,,,0.02,VWS V14.01,2014-02-19 21:43:00,
2014-02-19 16:48:00,32.1,31.6,29.83,East,93,4.0,4.0,98,0.00,,,0.02,VWS V14.01,2014-02-19 21:48:00,
2014-02-19 16:53:00,32.1,31.6,29.83,East,101,2.0,3.0,98,0.00,,,0.02,VWS V14.01,2014-02-19 21:53:00,
2014-02-19 16:58:00,32.0,31.5,29.83,ESE,109,4.0,4.0,98,0.00,,,0.02,VWS V14.01,2014-02-19 21:58:00,
2014-02-19 17:03:00,31.9,31.4,29.82,East,97,2.0,3.0,98,0.00,,,0.02,VWS V14.01,2014-02-19 22:03:00,
2014-02-19 17:08:00,31.9,31.4,29.82,East,92,5.0,5.0,98,0.00,,,0.02,VWS V14.01,2014-02-19 22:08:00,
2014-02-19 17:13:00,31.9,31.4,29.81,East,89,3.0,5.0,98,0.00,,,0.02,VWS V14.01,2014-02-19 22:13:00,
2014-02-19 17:18:00,31.9,31.4,29.81,East,88,4.0,5.0,98,0.00,,,0.02,VWS V14.01,2014-02-19 22:18:00,
2014-02-19 17:23:00,31.9,31.4,29.80,East,91,4.0,5.0,98,0.00,,,0.02,VWS V14.01,2014-02-19 22:23:00,
2014-02-19 17:28:00,31.9,31.4,29.80,ENE,74,3.0,5.0,98,0.00,,,0.02,VWS V14.01,2014-02-19 22:28:00,
2014-02-19 17:33:00,31.9,31.4,29.80,ESE,109,4.0,6.0,98,0.00,,,0.02,VWS V14.01,2014-02-19 22:33:00,
2014-02-19 17:38:00,31.9,31.4,29.79,East,84,4.0,6.0,98,0.00,,,0.02,VWS V14.01,2014-02-19 22:38:00,
2014-02-19 17:43:00,31.9,31.4,29.79,ENE,67,4.0,4.0,98,0.00,,,0.02,VWS V14.01,2014-02-19 22:43:00,
2014-02-19 17:48:00,31.9,31.4,29.79,East,82,2.0,2.0,98,0.00,,,0.02,VWS V14.01,2014-02-19 22:48:00,
2014-02-19 17:53:00,31.9,31.4,29.78,East,100,2.0,4.0,98,0.00,,,0.02,VWS V14.01,2014-02-19 22:53:00,
2014-02-19 17:58:00,31.9,31.4,29.78,East,94,2.0,3.0,98,0.00,,,0.02,VWS V14.01,2014-02-19 22:58:00,
2014-02-19 18:03:00,31.9,31.4,29.78,East,79,2.0,4.0,98,0.00,,,0.02,VWS V14.01,2014-02-19 23:03:00,
2014-02-19 18:08:00,31.9,31.4,29.78,East,84,2.0,3.0,98,0.00,,,0.02,VWS V14.01,2014-02-19 23:08:00,
2014-02-19 18:13:00,31.9,31.4,29.78,East,92,2.0,4.0,98,0.00,,,0.02,VWS V14.01,2014-02-19 23:13:00,
2014-02-19 18:18:00,31.9,31.4,29.78,East,90,2.0,2.0,98,0.00,,,0.02,VWS V14.01,2014-02-19 23:18:00,
2014-02-19 18:23:00,31.9,31.4,29.78,East,88,1.0,2.0,98,0.00,,,0.02,VWS V14.01,2014-02-19 23:23:00,
2014-02-19 18:28:00,31.9,31.4,29.77,East,86,1.0,3.0,98,0.00,,,0.02,VWS V14.01,2014-02-19 23:28:00,
2014-02-19 18:33:00,32.0,31.5,29.77,ENE,75,0.0,0.0,98,0.00,,,0.02,VWS V14.01,2014-02-19 23:33:00,
2014-02-19 18:38:00,32.0,31.5,29.78,ENE,72,0.0,0.0,98,0.00,,,0.02,VWS V14.01,2014-02-19 23:38:00,
2014-02-19 18:43:00,32.0,31.5,29.77,East,89,0.0,0.0,98,0.00,,,0.02,VWS V14.01,2014-02-19 23:43:00,
2014-02-19 18:48:00,32.0,31.5,29.77,ENE,77,1.0,1.0,98,0.00,,,0.02,VWS V14.01,2014-02-19 23:48:00,
2014-02-19 18:53:00,32.0,31.5,29.77,East,85,0.0,0.0,98,0.00,,,0.02,VWS V14.01,2014-02-19 23:53:00,
2014-02-19 18:58:00,32.0,31.5,29.77,ENE,74,0.0,1.0,98,0.00,,,0.02,VWS V14.01,2014-02-19 23:58:00,
2014-02-19 19:03:00,32.0,31.5,29.76,East,82,0.0,0.0,98,0.00,,,0.02,VWS V14.01,2014-02-20 00:03:00,
2014-02-19 19:08:00,32.0,31.5,29.76,ENE,77,0.0,0.0,98,0.00,,,0.02,VWS V14.01,2014-02-20 00:08:00,
2014-02-19 19:13:00,32.0,31.5,29.75,ENE,76,1.0,1.0,98,0.00,,,0.02,VWS V14.01,2014-02-20 00:13:00,
2014-02-19 19:18:00,32.1,31.6,29.75,ENE,76,1.0,2.0,98,0.00,,,0.02,VWS V14.01,2014-02-20 00:18:00,
2014-02-19 19:23:00,32.1,31.6,29.75,ENE,74,0.0,2.0,98,0.00,,,0.02,VWS V14.01,2014-02-20 00:23:00,
2014-02-19 19:28:00,32.2,31.7,29.75,ENE,72,1.0,3.0,98,0.00,,,0.02,VWS V14.01,2014-02-20 00:28:00,
2014-02-19 19:33:00,32.2,31.7,29.75,NE,56,2.0,3.0,98,0.00,,,0.02,VWS V14.01,2014-02-20 00:33:00,
2014-02-19 19:38:00,32.3,31.8,29.75,East,83,2.0,4.0,98,0.00,,,0.02,VWS V14.01,2014-02-20 00:38:00,
2014-02-19 19:43:00,32.3,31.8,29.75,ENE,62,0.0,0.0,98,0.00,,,0.02,VWS V14.01,2014-02-20 00:43:00,
2014-02-19 19:49:00,32.4,31.9,29.74,ENE,66,2.0,3.0,98,0.00,,,0.02,VWS V14.01,2014-02-20 00:49:00,
2014-02-19 19:59:00,32.5,32.0,29.75,North,349,2.0,3.0,98,0.00,,,0.02,VWS V14.01,2014-02-20 00:59:00,
2014-02-19 20:09:00,32.3,31.8,29.75,East,79,0.0,3.0,98,0.01,,,0.03,VWS V14.01,2014-02-20 01:09:00,
2014-02-19 20:19:00,32.1,31.6,29.75,NW,326,0.0,0.0,98,0.01,,,0.03,VWS V14.01,2014-02-20 01:19:00,
2014-02-19 20:29:00,32.0,31.5,29.75,NW,307,1.0,2.0,98,0.01,,,0.03,VWS V14.01,2014-02-20 01:29:00,
2014-02-19 20:39:00,31.9,31.4,29.75,NW,314,1.0,2.0,98,0.01,,,0.03,VWS V14.01,2014-02-20 01:39:00,
2014-02-19 20:49:00,32.0,31.5,29.75,WNW,285,0.0,0.0,98,0.01,,,0.03,VWS V14.01,2014-02-20 01:49:00,
2014-02-19 20:59:00,32.1,31.6,29.75,NW,305,1.0,2.0,98,0.01,,,0.03,VWS V14.01,2014-02-20 01:59:00,
2014-02-19 21:09:00,32.2,31.7,29.75,WNW,293,1.0,2.0,98,0.01,,,0.03,VWS V14.01,2014-02-20 02:09:00,
2014-02-19 21:19:00,32.2,31.7,29.75,WNW,285,2.0,4.0,98,0.00,,,0.03,VWS V14.01,2014-02-20 02:19:00,
2014-02-19 21:29:00,32.1,31.9,29.75,NW,307,3.0,5.0,99,0.00,,,0.03,VWS V14.01,2014-02-20 02:29:00,
2014-02-19 21:39:00,32.2,32.0,29.75,WNW,297,2.0,4.0,99,0.01,,,0.04,VWS V14.01,2014-02-20 02:39:00,
2014-02-19 21:49:00,32.3,32.0,29.75,WNW,295,0.0,2.0,99,0.01,,,0.04,VWS V14.01,2014-02-20 02:49:00,
2014-02-19 21:59:00,32.3,32.0,29.74,NW,305,2.0,4.0,99,0.01,,,0.04,VWS V14.01,2014-02-20 02:59:00,
2014-02-19 22:09:00,32.2,32.0,29.75,NW,315,5.0,6.0,99,0.01,,,0.04,VWS V14.01,2014-02-20 03:09:00,
2014-02-19 22:19:00,32.3,32.0,29.75,NW,311,5.0,5.0,99,0.01,,,0.04,VWS V14.01,2014-02-20 03:19:00,
2014-02-19 22:29:00,32.3,32.0,29.74,NW,316,2.0,4.0,99,0.01,,,0.04,VWS V14.01,2014-02-20 03:29:00,
2014-02-19 22:39:00,32.2,32.0,29.75,WNW,302,5.0,5.0,99,0.02,,,0.05,VWS V14.01,2014-02-20 03:39:00,
2014-02-19 22:49:00,32.2,32.0,29.75,WNW,289,2.0,5.0,99,0.01,,,0.05,VWS V14.01,2014-02-20 03:49:00,
2014-02-19 22:59:00,32.1,31.9,29.75,NW,309,2.0,5.0,99,0.01,,,0.05,VWS V14.01,2014-02-20 03:59:00,
2014-02-19 23:09:00,32.0,31.8,29.76,NW,311,5.0,7.0,99,0.01,,,0.05,VWS V14.01,2014-02-20 04:09:00,
2014-02-19 23:19:00,31.9,31.6,29.76,NW,316,6.0,6.0,99,0.01,,,0.05,VWS V14.01,2014-02-20 04:19:00,
2014-02-19 23:29:00,31.8,31.5,29.77,North,11,4.0,6.0,99,0.01,,,0.05,VWS V14.01,2014-02-20 04:29:00,
2014-02-19 23:39:00,31.7,31.2,29.76,WNW,293,3.0,5.0,98,0.01,,,0.05,VWS V14.01,2014-02-20 04:39:00,
2014-02-19 23:49:00,31.7,31.5,29.77,NW,309,4.0,5.0,99,0.00,,,0.05,VWS V14.01,2014-02-20 04:49:00,
2014-02-19 23:59:00,31.6,31.1,29.77,NNW,329,3.0,5.0,98,0.00,,,0.05,VWS V14.01,2014-02-20 04:59:00,